Location: Fours
(44.3167°N, 6.7000°E)
Time: 17:34:43
(UTC+00:00)

YAOGAN 1 - Pass Details

Date: 30 November 2020
Orbit: 618 x 620 km, 97.9° (Epoch: 23 January)

Event Time Altitude Azimuth Distance (km) Brightness Sun altitude
Exits shadow 16:51:50 13° 61° (ENE) 1,802 4.3 -9.9°
Maximum altitude 16:51:53 13° 61° (ENE) 1,801 4.3 -9.9°
Drops below altitude 10° 16:53:52 10° 33° (NNE) 1,997 4.7 -10.2°
Sets 16:57:09 0° 6° (N) 2,909 5.7 -10.8°
